View from above orbital plane
|
View from above satellite
|
Ground track
|
The orbit data is extracted from the following two-line orbital elements,
1 85U 61004C 21058.46587114 .00001932 00000-0 41560-3 0 9990
2 85 38.7761 159.0989 0392608 39.7244 323.1575 14.21655372967368
Epoch (UTC): | 27 February 2021 11:10:51 |
Eccentricity: | 0.0392608 |
inclination: | 38.7761° |
perigee height: | 537 km |
apogee height: | 1102 km |
right ascension of ascending node: | 159.0989° |
argument of perigee: | 39.7244° |
revolutions per day: | 14.21655372 |
mean anomaly at epoch: | 323.1575° |
orbit number at epoch: | 96736 |
The dashed part of the orbit path shows where the satellite is in the earth's shadow,
|
|